Regional Weather Roundup
Issued by NWS

Home | Current Version | Previous Version | Graphics & Text | Print | Product List | Glossary On
Versions: 1 2 3 4 5 6 7 8 9 10 11 12 13 14 15 16 17 18 19 20 21 22 23 24 25 26 27 28 29 30 31 32 33 34 35 36 37 38 39 40 41 42 43 44 45 46 47 48 49 50
000
ASUS45 KABQ 162001
RWRNM
WEATHER ROUNDUP FOR NEW MEXICO
NATIONAL WEATHER SERVICE ALBUQUERQUE NM
200 PM MDT TUE SEP 16 2014

NOTE: "FAIR" MEANS FEW OR NO CLOUDS BELOW 12,000 FEET AGL WITH NO
       SIGNIFICANT WEATHER OR OBSTRUCTIONS TO VISION.

      THIS PRODUCT IS RELEASED AS TWO VERSIONS.  ONE VERSION NEAR
      THE TOP OF THE HOUR CONTAINING PRELIMINARY DATA FROM ALBUQUERQUE
      AND OTHER STATIONS.  A FINAL VERSION WITH ADDITIONAL DATA IS
      ISSUED ABOUT 10 MINUTES AFTER THE HOUR.

NMZ501-503-504-510>518-162100-
NORTHWEST PLATEAU/NORTHCENTRAL MOUNTAINS

CITY           SKY/WX    TMP DP  RH WIND       PRES   REMARKS
FARMINGTON     SUNNY     82  47  29 VRB3      30.19F
LOS ALAMOS     PTSUNNY   67  52  59 S9        30.34F
SANTA FE       CLOUDY    73  50  44 SW9       30.28F
ANGEL FIRE     FAIR      69  32  25 SE12      30.39S

$$
NMZ402-403-502-505>509-162100-
WESTCENTRAL MOUNTAINS/SOUTHWEST MOUNTAINS

CITY           SKY/WX    TMP DP  RH WIND       PRES   REMARKS
GALLUP         CLOUDY    71  52  50 SE17G23   30.28F
GRANTS         CLOUDY    73  52  46 SE13G20   30.31F
SILVER CITY    CLOUDY    68  59  73 E21       30.25F

$$
NMZ407-409-411-412-162100-
SOUTHERN DESERTS

CITY           SKY/WX    TMP DP  RH WIND       PRES   REMARKS
LORDSBURG      CLOUDY    72  63  73 E17G26    30.14F
DEMING         LGT RAIN  68  66  93 NE13      30.17F FOG
LAS CRUCES     CLOUDY    72  64  75 SE5       30.20F
HOLLOMAN AFB   PTSUNNY   72  64  78 N2        30.18F
ALAMOGORDO     LGT RAIN  70  64  83 NW6       30.20F
T OR C         CLOUDY    69  61  75 NE6       30.22F

$$
NMZ519>523-162100-
CENTRAL VALLEYS/CENTRAL HIGHLANDS

CITY           SKY/WX    TMP DP  RH WIND       PRES   REMARKS
ALBUQUERQUE    CLOUDY    72  58  61 S6        30.25F
DOUBLE EAGLE   PTSUNNY   72  55  56 S7        30.28F
CLINES CORNERS CLOUDY    67  53  61 W12       30.33F
BELEN          FAIR      73  57  56 S12       30.25F
SOCORRO        LGT RAIN  66  62  87 CALM      30.24F

$$
NMZ524>526-539-540-162100-
SOUTHCENTRAL MOUNTAINS

CITY           SKY/WX    TMP DP  RH WIND       PRES   REMARKS
RUIDOSO        NOT AVBL

$$
NMZ527>531-162100-
NORTHEAST HIGHLANDS/NORTHEAST PLAINS

CITY           SKY/WX    TMP DP  RH WIND       PRES   REMARKS
LAS VEGAS      CLOUDY    72  51  47 S15       30.30F
RATON          SUNNY     77  49  37 S8        30.23F
CLAYTON        SUNNY     79  56  45 S18G26    30.17F

$$
NMZ532>537-162100-
EASTCENTRAL PLAINS

CITY           SKY/WX    TMP DP  RH WIND       PRES   REMARKS
TUCUMCARI      CLOUDY    79  59  50 S13       30.17F
CANNON AFB     NOT AVBL
CLOVIS AIRPORT   N/A     75  61  60 SW12      30.23F

$$
NMZ028-029-538-162100-
SOUTHEAST PLAINS

CITY           SKY/WX    TMP DP  RH WIND       PRES   REMARKS
ROSWELL        LGT RAIN  71  66  84 CALM      30.20F
CARLSBAD       CLOUDY    76  72  87 NE5       30.17F
HOBBS          CLOUDY    66  66 100 NW7       30.21F


$$



USA.gov is the U.S. government's official web portal to all federal, state and local government web resources and services.